This is the latest recevied weather packets stored in our database for station/object CT2IRJ-11. If no packets are shown the sender has not sent any weather packets the latest 10 day(s).
| Time | Temp. | Humidity | Pressure | Rain* | Wind** | Luminosity | Snow |
|---|---|---|---|---|---|---|---|
| 1777463909 | 16.67° C | 87% | 1008.8 hPa | 0 mm | - | 137 W/m² | - |
| 1777463610 | 16.67° C | 89% | 1008.8 hPa | 0 mm | - | 153 W/m² | - |
| 1777463310 | 16.67° C | 89% | 1008.8 hPa | 0 mm | - | 213 W/m² | - |
| 1777463010 | 16.67° C | 88% | 1008.8 hPa | 0 mm | - | 140 W/m² | - |
| 1777462709 | 16.67° C | 88% | 1008.8 hPa | 0 mm | - | 137 W/m² | - |
| 1777462410 | 16.11° C | 88% | 1008.8 hPa | 0 mm | - | 132 W/m² | - |
| 1777462110 | 16.11° C | 88% | 1008.8 hPa | 0 mm | - | 122 W/m² | - |
| 1777461810 | 16.11° C | 88% | 1008.8 hPa | 0 mm | - | 110 W/m² | - |
| 1777461510 | 16.11° C | 88% | 1008.8 hPa | 0 mm | - | 121 W/m² | - |
| 1777461210 | 16.11° C | 88% | 1008.8 hPa | 0 mm | - | 137 W/m² | - |
| 1777460909 | 16.11° C | 88% | 1008.5 hPa | 0 mm | - | 145 W/m² | - |
| 1777460610 | 15.56° C | 89% | 1008.8 hPa | 0 mm | - | 147 W/m² | - |
| 1777460310 | 15.56° C | 89% | 1008.8 hPa | 0 mm | - | 149 W/m² | - |
| 1777460009 | 15.56° C | 90% | 1008.8 hPa | 0 mm | - | 173 W/m² | - |
| 1777459709 | 15.56° C | 91% | 1008.8 hPa | 0 mm | - | 220 W/m² | - |
| 1777459409 | 15° C | 91% | 1008.8 hPa | 0 mm | - | 217 W/m² | - |
| 1777459110 | 15° C | 91% | 1008.8 hPa | 0 mm | - | 282 W/m² | - |
| 1777458810 | 15° C | 92% | 1008.8 hPa | 0 mm | - | 298 W/m² | - |
| 1777458509 | 14.44° C | 92% | 1008.8 hPa | 0 mm | - | 279 W/m² | - |
| 1777458209 | 15° C | 93% | 1008.8 hPa | 0 mm | - | 228 W/m² | - |
| 1777457911 | 14.44° C | 93% | 1008.8 hPa | 0 mm | - | 237 W/m² | - |
| 1777457610 | 14.44° C | 93% | 1008.8 hPa | 0 mm | - | 147 W/m² | - |
| 1777457310 | 13.89° C | 93% | 1008.8 hPa | 0 mm | - | 106 W/m² | - |
| 1777457011 | 14.44° C | 93% | 1008.8 hPa | 0 mm | - | 110 W/m² | - |
| 1777456709 | 14.44° C | 93% | 1008.8 hPa | 0 mm | - | 122 W/m² | - |
* Rain latest hour (hover to see other rain measurements)
** Current wind speed in m/s (hover to see current wind gust speed)